Вернуться в каталог

COSMOS 1275 DEB

АктивенPO
NORAD 42126·DEBRIS·🇷🇺 Russia

Запущен Jun 4, 1981 с Plesetsk Cosmodrome

Loading…

Ближайшие Пролёты (ближайшие 24 часа)

TLE

УстаревающийSource: Space-Track

Эпоха: Sep 7, 2026, 07:45 UTC

1 42126U 81053QN  26250.32357285  .00000256  00000-0  30823-3 0  9994
2 42126  83.1689  14.9933 0157267 294.1790  93.0531 13.58511121632900

Отслеживайте COSMOS 1275 DEB в реальном времени с AllMySat

Download on the App Store